Regional Weather Roundup
Issued by NWS

Home | Current Version | Previous Version | Graphics & Text | Print | Product List | Glossary On
Versions: 1 2 3 4 5 6 7 8 9 10 11 12 13 14 15 16 17 18 19 20 21 22 23 24 25 26 27 28 29 30 31 32 33 34 35 36 37 38 39 40 41 42 43 44 45 46 47 48 49 50
000
ASUS45 KABQ 040601
RWRNM
WEATHER ROUNDUP FOR NEW MEXICO
NATIONAL WEATHER SERVICE ALBUQUERQUE NM
1200 AM MDT MON MAY 04 2015

NOTE: "FAIR" MEANS FEW OR NO CLOUDS BELOW 12,000 FEET AGL WITH NO
       SIGNIFICANT WEATHER OR OBSTRUCTIONS TO VISION.

      THIS PRODUCT IS RELEASED AS TWO VERSIONS.  ONE VERSION NEAR
      THE TOP OF THE HOUR CONTAINING PRELIMINARY DATA FROM ALBUQUERQUE
      AND OTHER STATIONS.  A FINAL VERSION WITH ADDITIONAL DATA IS
      ISSUED ABOUT 10 MINUTES AFTER THE HOUR.

NMZ501-503-504-510>518-040700-
NORTHWEST PLATEAU/NORTHCENTRAL MOUNTAINS

CITY           SKY/WX    TMP DP  RH WIND       PRES   REMARKS
FARMINGTON     PTCLDY    54  38  54 E7        30.02S
6HR MIN TEMP:  53; 6HR MAX TEMP:  69;

SANTA FE       PTCLDY    50  37  61 N12       30.05S
6HR MIN TEMP:  50; 6HR MAX TEMP:  66; 6HR PCP: TRACE;

TAOS           MOCLDY    43  30  61 CALM      30.13S
ANGEL FIRE     FAIR      36  35  96 CALM      30.19S

$$
NMZ402-403-502-505>509-040700-
WESTCENTRAL MOUNTAINS/SOUTHWEST MOUNTAINS

CITY           SKY/WX    TMP DP  RH WIND       PRES   REMARKS
GALLUP         CLOUDY    52  40  63 N8        30.08S
6HR MIN TEMP:  51; 6HR MAX TEMP:  66;

GRANTS         CLOUDY    53  38  56 CALM      30.10S
SILVER CITY      N/A     59  34  38 NE8       30.01S

$$
NMZ407-409-411-412-040700-
SOUTHERN DESERTS

CITY           SKY/WX    TMP DP  RH WIND       PRES   REMARKS
DEMING         MOCLDY    66  38  35 CALM      29.93S
6HR MIN TEMP:  66; 6HR MAX TEMP:  81; 6HR PCP: TRACE;

ALAMOGORDO     MOCLDY    66  32  28 S10       29.91S
T OR C         CLEAR     63  33  32 NW8       29.94S
6HR MIN TEMP:  63; 6HR MAX TEMP:  76; 6HR PCP: TRACE;


$$
NMZ519>523-040700-
CENTRAL VALLEYS/CENTRAL HIGHLANDS

CITY           SKY/WX    TMP DP  RH WIND       PRES   REMARKS
ALBUQUERQUE    MOCLDY    62  36  37 W6        30.01R
6HR MIN TEMP:  62; 6HR MAX TEMP:  72;

DOUBLE EAGLE   CLOUDY    58  37  45 N8        30.05R
MORIARTY ARPT  FAIR      49  35  57 N5        30.06R
6HR MIN TEMP:  47; 6HR MAX TEMP:  74;

CLINES CORNERS CLOUDY    54  35  48 NE7       30.08R
6HR MIN TEMP:  53; 6HR MAX TEMP:  70;

BELEN          FAIR      58  36  43 NW9       30.01S
6HR MIN TEMP:  57; 6HR MAX TEMP:  75;

SOCORRO        NOT AVBL

$$
NMZ524>526-539-540-040700-
SOUTHCENTRAL MOUNTAINS

CITY           SKY/WX    TMP DP  RH WIND       PRES   REMARKS
RUIDOSO        NOT AVBL

$$
NMZ527>531-040700-
NORTHEAST HIGHLANDS/NORTHEAST PLAINS

CITY           SKY/WX    TMP DP  RH WIND       PRES   REMARKS
LAS VEGAS      MOCLDY    47  39  74 N5        30.09R
6HR MIN TEMP:  45; 6HR MAX TEMP:  61; 6HR PCP: TRACE;

RATON          CLOUDY    50  41  71 N10       30.07F
6HR MIN TEMP:  49; 6HR MAX TEMP:  61; 6HR PCP: TRACE;

CLAYTON        CLOUDY    56  49  77 SW6       30.01R
6HR MIN TEMP:  55; 6HR MAX TEMP:  72; 6HR PCP:  0.16;


$$
NMZ532>537-040700-
EASTCENTRAL PLAINS

CITY           SKY/WX    TMP DP  RH WIND       PRES   REMARKS
TUCUMCARI        N/A     64  48  56 S24G31    29.98R
6HR MIN TEMP:  64; 6HR MAX TEMP:  77; 6HR PCP: TRACE;

CANNON AFB     NOT AVBL
CLOVIS AIRPORT MOCLDY    57  46  67 NE3       30.00R

$$
NMZ028-029-538-040700-
SOUTHEAST PLAINS

CITY           SKY/WX    TMP DP  RH WIND       PRES   REMARKS
ROSWELL        PTCLDY    62  46  55 S9        29.92S
6HR MIN TEMP:  62; 6HR MAX TEMP:  85;

ARTESIA        PTCLDY    68  45  42 S17G25    29.91S
CARLSBAD       CLEAR     65  47  52 S13       29.91F
6HR MIN TEMP:  65; 6HR MAX TEMP:  81;

HOBBS          MOCLDY    63  55  77 SE7       29.96R


$$



USA.gov is the U.S. government's official web portal to all federal, state and local government web resources and services.